TimePDT,TemperatureF,Dew PointF,Humidity,Sea Level PressureIn,VisibilityMPH,Wind Direction,Wind SpeedMPH,Gust SpeedMPH,PrecipitationIn,Events,Conditions,WindDirDegrees,DateUTC
12:53 AM,57.0,55.9,96,29.99,10.0,West,15.0,-,N/A,,Mostly Cloudy,280,2013-06-05 07:53:00
1:53 AM,57.0,55.9,96,29.99,10.0,West,13.8,-,N/A,,Overcast,270,2013-06-05 08:53:00
2:42 AM,57.2,55.4,94,29.99,10.0,West,10.4,-,N/A,,Overcast,270,2013-06-05 09:42:00
2:53 AM,57.0,55.0,93,29.99,10.0,West,12.7,-,N/A,,Overcast,270,2013-06-05 09:53:00
3:37 AM,57.2,55.4,94,29.99,10.0,WNW,12.7,-,N/A,,Overcast,290,2013-06-05 10:37:00
3:53 AM,57.0,55.0,93,29.99,10.0,WNW,11.5,-,N/A,,Overcast,290,2013-06-05 10:53:00
4:53 AM,55.9,55.0,97,29.99,10.0,West,12.7,-,N/A,,Overcast,280,2013-06-05 11:53:00
5:53 AM,55.0,54.0,96,30.00,7.0,WNW,12.7,-,N/A,,Overcast,290,2013-06-05 12:53:00
6:53 AM,55.9,54.0,93,30.01,8.0,West,10.4,-,N/A,,Overcast,280,2013-06-05 13:53:00
7:53 AM,55.9,55.0,97,30.02,10.0,West,8.1,-,N/A,,Overcast,280,2013-06-05 14:53:00
8:53 AM,57.0,54.0,89,30.03,10.0,West,9.2,-,N/A,,Overcast,280,2013-06-05 15:53:00
9:53 AM,57.9,54.0,87,30.02,10.0,NW,9.2,-,N/A,,Overcast,310,2013-06-05 16:53:00
10:28 AM,59.0,55.4,88,30.02,10.0,WNW,10.4,-,N/A,,Overcast,300,2013-06-05 17:28:00
10:53 AM,60.1,55.0,83,30.02,10.0,WNW,10.4,-,N/A,,Overcast,300,2013-06-05 17:53:00
11:43 AM,60.8,53.6,77,30.02,10.0,WNW,12.7,-,N/A,,Scattered Clouds,290,2013-06-05 18:43:00
11:53 AM,62.1,55.0,78,30.02,10.0,WNW,11.5,-,N/A,,Partly Cloudy,300,2013-06-05 18:53:00
12:53 PM,63.0,54.0,72,30.01,10.0,West,11.5,-,N/A,,Partly Cloudy,280,2013-06-05 19:53:00
1:53 PM,64.9,53.1,65,30.00,10.0,WNW,16.1,-,N/A,,Partly Cloudy,290,2013-06-05 20:53:00
2:53 PM,64.9,55.0,70,29.99,10.0,WNW,17.3,-,N/A,,Partly Cloudy,300,2013-06-05 21:53:00
3:53 PM,64.0,55.0,73,29.98,10.0,WNW,18.4,-,N/A,,Scattered Clouds,290,2013-06-05 22:53:00
4:53 PM,64.0,55.0,73,29.97,10.0,West,17.3,-,N/A,,Scattered Clouds,280,2013-06-05 23:53:00
5:53 PM,62.1,55.0,78,29.96,10.0,WNW,18.4,-,N/A,,Scattered Clouds,290,2013-06-06 00:53:00
6:53 PM,60.1,55.0,83,29.96,10.0,WNW,16.1,-,N/A,,Scattered Clouds,300,2013-06-06 01:53:00
7:53 PM,57.0,55.0,93,29.97,10.0,WNW,12.7,-,N/A,,Scattered Clouds,300,2013-06-06 02:53:00
8:53 PM,55.9,55.0,97,29.98,10.0,WNW,13.8,18.4,N/A,,Scattered Clouds,290,2013-06-06 03:53:00
9:40 PM,55.4,55.4,100,29.99,10.0,WNW,11.5,-,N/A,,Mostly Cloudy,290,2013-06-06 04:40:00
9:53 PM,55.9,55.9,100,29.99,10.0,WNW,12.7,-,N/A,,Mostly Cloudy,290,2013-06-06 04:53:00
10:05 PM,55.4,55.4,100,29.99,10.0,WNW,11.5,-,N/A,,Scattered Clouds,290,2013-06-06 05:05:00
10:13 PM,55.4,55.4,100,29.99,10.0,WNW,10.4,-,N/A,,Mostly Cloudy,290,2013-06-06 05:13:00
10:22 PM,55.4,55.4,100,29.99,10.0,WNW,11.5,-,N/A,,Scattered Clouds,290,2013-06-06 05:22:00
10:31 PM,55.4,55.4,100,29.99,10.0,WNW,11.5,-,N/A,,Mostly Cloudy,290,2013-06-06 05:31:00
10:53 PM,55.9,55.9,100,29.99,10.0,WNW,10.4,-,N/A,,Scattered Clouds,300,2013-06-06 05:53:00
11:02 PM,55.4,55.4,100,29.99,10.0,WNW,11.5,-,N/A,,Mostly Cloudy,300,2013-06-06 06:02:00
11:53 PM,55.0,55.0,100,29.99,10.0,WNW,11.5,-,N/A,,Mostly Cloudy,290,2013-06-06 06:53:00